Location: Ferchesar
(52.6477°N, 12.4298°E)
Time: 09:43:53
(UTC+02:00)

Envisat - Visible Passes

Search period start: 04 October 2022 00:00
Search period end: 14 October 2022 00:00
Orbit: 764 x 765 km, 98.2° (Epoch: 03 October)

Date Brightness Start Highest point End Pass type
(mag) Time Alt. Az. Time Alt. Az. Time Alt. Az.
04 Oct 3.7 05:20:45 10° NNE 05:25:45 54° E 05:30:43 10° S visible
05 Oct 4.9 04:44:09 10° NNE 04:48:32 28° E 04:52:53 10° SSE visible
05 Oct 3.2 06:22:52 10° N 06:27:48 52° WNW 06:32:43 10° SW visible
06 Oct 5.8 04:08:17 10° NE 04:11:06 15° E 04:13:54 10° ESE visible
06 Oct 3.0 05:45:47 10° NNE 05:50:55 85° ESE 05:55:59 10° SSW visible
07 Oct 4.1 05:08:57 10° NNE 05:13:50 44° E 05:18:40 10° S visible
08 Oct 5.2 04:32:31 10° NE 04:36:33 23° E 04:40:33 10° SE visible
08 Oct 3.0 06:10:57 10° N 06:15:59 63° WNW 06:21:00 10° SSW visible
09 Oct 5.9 03:57:14 10° ENE 03:59:03 12° E 04:00:51 10° ESE visible
09 Oct 3.3 05:33:56 10° NNE 05:39:02 69° ESE 05:44:05 10° S visible
10 Oct 4.5 04:57:11 10° NNE 05:01:53 36° E 05:06:32 10° SSE visible
10 Oct 3.4 06:36:12 10° N 06:40:57 41° WNW 06:45:42 10° SW visible
11 Oct 5.5 04:20:57 10° NE 04:24:31 19° E 04:28:05 10° SE visible
11 Oct 2.9 05:59:02 10° NNE 06:04:08 77° WNW 06:09:13 10° SSW visible
12 Oct 3.6 05:22:05 10° NNE 05:27:07 56° E 05:32:06 10° S visible
13 Oct 4.8 04:45:28 10° NNE 04:49:55 29° E 04:54:19 10° SSE visible
13 Oct 3.2 06:24:15 10° N 06:29:09 50° WNW 06:34:01 10° SW visible
